📊 Raw Sensor Data

Showing records 46176 to 46200 of 85,066 total

ID Distance (ft) Battery V Battery A Int Temp (°F) Int Humid (%) Ext Temp (°F) Solar V RSSI SNR Time Stamp
38903 15.3 4.00 0 53 41 54 5.10 -81 5 04/26/2025 10:30 AM
38902 -- 4.00 0 52 42 53 5.10 -80 7 04/26/2025 10:16 AM
38901 15.4 4.00 0 52 41 53 5.10 -80 7 04/26/2025 10:00 AM
38900 15.4 4.11 60 51 41 52 4.50 -80 7 04/26/2025 09:45 AM
38899 15.3 4.05 39 51 41 52 4.50 -80 8 04/26/2025 09:30 AM
38898 15.4 4.01 24 50 41 51 4.50 -81 6 04/26/2025 09:15 AM
38897 -- 4.04 5 50 41 50 4.50 -80 6 04/26/2025 09:00 AM
38896 -- 4.01 0 49 40 50 4.50 -81 7 04/26/2025 08:45 AM
38895 -- 3.96 12 49 41 50 4.50 -81 7 04/26/2025 08:30 AM
38894 -- 4.00 7 48 41 49 4.50 -81 8 04/26/2025 08:15 AM
38893 -- 3.99 0 48 41 48 4.60 -81 8 04/26/2025 08:00 AM
38892 -- 3.93 0 48 41 48 4.50 -81 8 04/26/2025 07:45 AM
38891 -- 3.92 0 47 41 48 4.50 -81 8 04/26/2025 07:30 AM
38890 -- 3.97 -5 47 41 48 4.50 -81 7 04/26/2025 07:15 AM
38889 -- 3.92 0 47 41 47 4.50 -81 8 04/26/2025 07:00 AM
38888 15.3 3.91 -7 47 41 47 4.50 -81 7 04/26/2025 06:46 AM
38887 -- 3.90 -10 47 41 47 3.20 -81 5 04/26/2025 06:30 AM
38886 -- 3.92 -16 46 42 47 0.50 -81 8 04/26/2025 06:00 AM
38885 15.3 3.98 -5 47 42 48 0.00 -81 7 04/26/2025 05:45 AM
38884 15.3 3.92 -5 47 42 47 0.00 -83 8 04/26/2025 05:30 AM
38883 15.4 3.92 -5 47 42 47 0.10 -81 7 04/26/2025 05:15 AM
38882 15.3 3.92 -5 47 42 47 0.00 -80 6 04/26/2025 05:00 AM
38881 15.3 3.92 -5 47 42 47 0.00 -81 6 04/26/2025 04:45 AM
38880 15.3 3.98 -5 47 42 47 0.00 -80 7 04/26/2025 04:30 AM
38879 15.3 3.92 -5 47 42 47 0.00 -80 5 04/26/2025 04:15 AM